sat.trackr.live / text

‹ back to catalog

STARLINK-11736 [DTC]

NORAD 64317 · 2025-124A

PAYLOAD ACTIVE UNKNOWN

§ Identity

Operator
Country
US
Launch date
2025-06-10
Launch site
AFETR
Launch vehicle
Mass (kg)
RCS (m²)

Purposes: comms

External: N2YO · Heavens-Above · Gunter

§ Orbital elements

Epoch: 2026-05-24T21:05:02.152032Z

Period
91.67 min
Inclination
42.9994°
Eccentricity
0.0004122
Mean motion
15.70885053 rev/d
Perigee alt
353.6 km
Apogee alt
359.1 km
Semi-major
6,734.5 km
B*
1.3328e-3
RAAN
290.2677°
Arg perigee
239.5103°
Mean anomaly
120.5358°
Rev number
5,481

§ Raw data

STARLINK-11736 [DTC]1 64317U 25124A   26144.87849713  .00174580  00000+0  13328-2 0  99922 64317  42.9994 290.2677 0004122 239.5103 120.5358 15.70885053 54819

JSON: /api/v1/satellites/64317 · /tle

For live sub-satellite position, see the globe view (requires WebGL).

§ Visibility from observer

Set your observer location to see the next 7 days of passes ≥ 10°. The values pass through the URL so the page stays shareable.

No JS? Fill the form by hand. The geolocation button needs JavaScript.